This is the latest recevied weather packets stored in our database for station/object KMASWX. If no packets are shown the sender has not sent any weather packets the latest 10 day(s).
| Time | Temp. | Humidity | Pressure | Rain* | Wind** | Luminosity | Snow |
|---|---|---|---|---|---|---|---|
| 1777836719 | 23.89° C | 27% | - | 0 mm | - | - | - |
| 1777836415 | 23.89° C | 27% | - | 0 mm | - | - | - |
| 1777836111 | 23.33° C | 29% | - | 0 mm | - | - | - |
| 1777835803 | 24.44° C | 27% | - | 0 mm | - | - | - |
| 1777835500 | 24.44° C | 29% | - | 0 mm | - | - | - |
| 1777834890 | 23.33° C | 28% | - | 0 mm | - | - | - |
| 1777834586 | 22.78° C | 29% | - | 0 mm | - | - | - |
| 1777834281 | 22.78° C | 30% | - | 0 mm | - | - | - |
| 1777833974 | 22.22° C | 29% | - | 0 mm | - | - | - |
| 1777833670 | 21.67° C | 32% | - | 0 mm | - | - | - |
| 1777833367 | 21.11° C | 30% | - | 0 mm | - | - | - |
| 1777833060 | 20.56° C | 31% | - | 0 mm | - | - | - |
| 1777832757 | 20.56° C | 31% | - | 0 mm | - | - | - |
| 1777832150 | 20.56° C | 33% | - | 0 mm | - | - | - |
| 1777831842 | 20° C | 33% | - | 0 mm | - | - | - |
| 1777831539 | 20° C | 33% | - | 0 mm | - | - | - |
| 1777831235 | 20° C | 33% | - | 0 mm | - | - | - |
| 1777830930 | 19.44° C | 35% | - | 0 mm | - | - | - |
| 1777830627 | 20° C | 35% | - | 0 mm | - | - | - |
| 1777830019 | 18.89° C | 39% | - | 0 mm | - | - | - |
| 1777829410 | 17.78° C | 39% | - | 0 mm | - | - | - |
| 1777829104 | 17.78° C | 38% | - | 0 mm | - | - | - |
| 1777828797 | 17.78° C | 42% | - | 0 mm | - | - | - |
| 1777828494 | 17.78° C | 44% | - | 0 mm | - | - | - |
| 1777828190 | 17.22° C | 42% | - | 0 mm | - | - | - |
* Rain latest 24 hours (hover to see other rain measurements)
** Current wind speed in m/s (hover to see current wind gust speed)